Regional Weather Roundup
Issued by NWS

Home | Current Version | Previous Version | Text Only | Print | Product List | Glossary Off
Versions: 1 2 3 4 5 6 7 8 9 10 11 12 13 14 15 16 17 18 19 20 21 22 23 24 25 26 27 28 29 30 31 32 33 34 35 36 37 38 39 40 41 42 43 44 45 46 47 48 49 50

000
ASUS43 KMKX 240110
RWRWI

WISCONSIN REGIONAL WEATHER ROUNDUP
NATIONAL WEATHER SERVICE MILWAUKEE/SULLIVAN WI
800 PM CDT SAT MAY 23 2015

NOTE: "FAIR" INDICATES FEW OR NO CLOUDS BELOW 12,000 FEET WITH NO
SIGNIFICANT WEATHER AND/OR OBSTRUCTIONS TO VISIBILITY.

WIZ001-002-006>008-014>016-023>028-240200-
NORTHWEST WISCONSIN

CITY           SKY/WX    TMP DP  RH WIND       PRES   REMARKS
SUPERIOR ARPT  PTCLDY    70  44  39 SW10      30.14R
ASHLAND        MOCLDY    68  42  38 SW9       30.15R
HAYWARD        CLEAR     67  43  41 CALM      30.18S
SIREN          CLOUDY    67  41  38 CALM      30.17F
CUMBERLAND     CLOUDY    63  46  55 NE6       30.17F
RICE LAKE      CLOUDY    64  47  55 CALM      30.18F
CHETEK         CLOUDY    64  49  58 CALM      30.17F
LADYSMITH      CLOUDY    66  46  49 CALM      30.19F
EAU CLAIRE     CLOUDY    69  47  45 NE3       30.14F
MENOMONIE      CLOUDY    70  43  37 NE3       30.14F
NEW RICHMOND   LGT RAIN  62  49  62 NE9       30.16F
OSCEOLA        CLOUDY    63  54  72 CALM      30.19S
$$

WIZ003>005-009-010-017-018-240200-
NORTH CENTRAL WISCONSIN

CITY           SKY/WX    TMP DP  RH WIND       PRES   REMARKS
MANITOWISH WTR MOCLDY    67  38  34 W13G21    30.18R
ARBOR VITAE    MOCLDY    68  36  31 W7        30.19R
WOODRUFF       MOCLDY    68  36  31 W7        30.19R
RHINELANDER    CLOUDY    67  38  34 W7        30.19R
EAGLE RIVER    PTCLDY    69  33  26 W15       30.17R
LAND O LAKES   PTCLDY    71  33  24 W8        30.17R
PHILLIPS       MOCLDY    66  40  38 CALM      30.18S
TOMAHAWK       CLOUDY    66  37  33 W3        30.19S
MEDFORD        CLOUDY    68  42  38 CALM      30.18S
MERRILL        CLOUDY    69  44  40 CALM      30.19S
$$

WIZ029-030-035-036-043>047-240200-
CENTRAL WISCONSIN

CITY           SKY/WX    TMP DP  RH WIND       PRES   REMARKS
WAUSAU         MOCLDY    70  40  33 NW3       30.16S
MOSINEE        PTCLDY    68  43  40 CALM      30.18S
MARSHFIELD     MOCLDY    70  42  36 CALM      30.17S
STEVENS POINT  MOCLDY    71  39  31 CALM      30.17S
WAUPACA        MOCLDY    73  40  30 S3        30.16S
WAUTOMA        CLOUDY    73  45  35 CALM      30.16F HAZE
WISC RAPIDS    MOCLDY    72  40  31 CALM      30.17S
CAMP DOUGLAS   NOT AVBL
$$

WIZ011>013-019>022-031-037>040-048>050-240200-
NORTHEAST WISCONSIN

CITY           SKY/WX    TMP DP  RH WIND       PRES   REMARKS
ANTIGO         MOCLDY    66  44  45 W3        30.18S
SHAWANO        PTCLDY    76  37  25 W3        30.16S
OCONTO         PTCLDY    70  44  39 S3        30.15S
STURGEON BAY   PTCLDY    64  37  36 S12       30.20S
GREEN BAY      PTCLDY    74  40  29 S7        30.17R
MANITOWOC      NOT AVBL
APPLETON       MOCLDY    72  43  35 VRB3      30.17S
CLINTONVILLE   MOCLDY    73  37  27 SW3       30.16R
OSHKOSH        CLOUDY    73  42  32 CALM      30.16S
$$

WIZ032>034-041-042-053>061-240200-
SOUTHWEST WISCONSIN

CITY           SKY/WX    TMP DP  RH WIND       PRES   REMARKS
LA CROSSE      MOCLDY    74  46  36 SE6       30.12F
SPARTA         CLOUDY    74  42  31 CALM      30.15F
VIROQUA        MOCLDY    72  44  37 SE5       30.16F
BOSCOBEL       PTCLDY    75  44  33 CALM      30.14F
PRAIRIE DU CHI CLEAR     75  39  27 SE5       30.13F
PLATTEVILLE    PTCLDY    74  44  33 S8        30.16S
$$

WIZ056-057-062-063-064-067-068-240200-
SOUTH CENTRAL WISCONSIN

CITY           SKY/WX    TMP DP  RH WIND       PRES   REMARKS
REEDSBURG      PTCLDY    73  44  36 CALM      30.15F
BARABOO/DELLS  MOCLDY    71  39  31 S5        30.16S
LONE ROCK      NOT AVBL
MINERAL POINT  MOCLDY    73  39  29 CALM      30.17S
MADISON        CLOUDY    73  45  36 CALM      30.16F
MIDDLETON      CLOUDY    75  33  21 CALM      30.17F
WATERTOWN      PTCLDY    73  46  38 CALM      30.17S
MONROE         CLOUDY    73  43  33 CALM      30.17S
JANESVILLE     MOCLDY    75  37  25 CALM      30.16F
$$

WIZ051-052-058>065-066-070>072-240200-
SOUTHEAST WISCONSIN

CITY           SKY/WX    TMP DP  RH WIND       PRES   REMARKS
MILWAUKEE      MOCLDY    62  39  42 SE6       30.20R
WAUKESHA       MOCLDY    68  43  40 SE9       30.20R
MILWAUKEE/TIMM NOT AVBL
RACINE         PTCLDY    62  39  42 SE5       30.21S
BURLINGTON     MOCLDY    68  44  42 E7        30.19R
KENOSHA        PTCLDY    63  43  48 SE5       30.20R
FOND DU LAC    PTCLDY    69  41  36 SE13      30.17S
SHEBOYGAN      PTCLDY    63  38  39 S7        30.20S
WEST BEND      CLEAR     66  37  34 E5        30.20R
JUNEAU         PTCLDY    73  40  31 S5        30.19S
$$

LSZ147-162-240200-
LAKE SUPERIOR

STATION/POSITION TIME  TEMP    WIND        PRES    WAVE
                       AIR SEA DIR/SP/G            HT/PER
                 (UTC) (F)     (DEG/KT/KT) (MB)    (FT/S)
W MID LAKE BUOY  2350   49 37  230/ 10/ 10   N/A     1/ 4
DEVILS ISLAND    0000   69     230/  9/ 10   N/A
PORT WING        0000   73     220/ 13/ 20   N/A
SAXON HARBOR     0000   76     240/ 12/ 17   N/A
$$

LMZ867-665-643>646-240200-
LAKE MICHIGAN

STATION/POSITION TIME  TEMP    WIND        PRES    WAVE
                       AIR SEA DIR/SP/G            HT/PER
                 (UTC) (F)     (DEG/KT/KT) (MB)    (FT/S)
CHAMBERS ISLAND  0000   68     150/  6/ 11   N/A
N MID LAKE BUOY  2350   42 36  200/ 12/ 14   N/A     2/ 4
NORTHPORT PIER   0000   63     170/  7/ 18   N/A
SISTER BAY       0017   66     200/ 18/ 22   N/A
KEWAUNEE LAKESHO 0000   51     170/ 10/ 12   N/A
SHEBOYGAN LAKESH 0000   58     190/ 15/ 16   N/A
PORT WASHINGTON  0040   57     200/  3/  4   N/A
ATWATER BUOY     0000   51 46  120/  4/  4   N/A
MILWAUKEE LAKESH 0015   56     140/  2/  4   N/A
S MID LAKE BUOY  2350   45 38   90/  8/  8   N/A     0
$$

TC  - TEMPERATURE IN CELSIUS
VSB - VISIBILITY IN STATUTE MILES
WCI - WIND CHILL INDEX
HX  - HEAT INDEX



USA.gov is the U.S. government's official web portal to all federal, state and local government web resources and services.